Time,TemperatureF,DewpointF,PressureIn,WindDirection,WindDirectionDegrees,WindSpeedMPH,WindSpeedGustMPH,Humidity,HourlyPrecipIn,Conditions,Clouds,dailyrainin,SoftwareType,DateUTC
2013-06-03 00:02:00,53.0,50.0,30.12,North,2,9.0,14.0,90,0.00,,,0.07,,2013-06-03 07:02:00,
2013-06-03 00:11:00,53.0,50.0,30.12,North,2,9.0,14.0,90,0.00,,,0.07,,2013-06-03 07:11:00,
2013-06-03 00:22:00,53.0,50.0,30.12,North,4,10.0,16.0,90,0.00,,,0.07,,2013-06-03 07:22:00,
2013-06-03 00:32:00,53.0,50.0,30.12,North,6,13.0,16.0,90,0.00,,,0.06,,2013-06-03 07:32:00,
2013-06-03 00:42:00,53.0,50.0,30.12,North,6,13.0,16.0,90,0.00,,,0.06,,2013-06-03 07:42:00,
2013-06-03 00:52:00,53.0,50.0,30.12,North,6,14.0,18.0,90,0.00,,,0.06,,2013-06-03 07:52:00,
2013-06-03 01:01:00,53.0,50.0,30.12,North,7,10.0,14.0,90,0.00,,,0.06,,2013-06-03 08:01:00,
2013-06-03 01:12:00,53.0,50.0,30.12,North,7,10.0,14.0,90,0.00,,,0.06,,2013-06-03 08:12:00,
2013-06-03 01:22:00,53.0,50.0,30.11,North,4,14.0,18.0,90,0.00,,,0.06,,2013-06-03 08:22:00,
2013-06-03 01:32:00,53.0,50.0,30.12,North,9,8.0,15.0,90,0.00,,,0.06,,2013-06-03 08:32:00,
2013-06-03 01:42:00,53.0,50.0,30.12,North,9,8.0,15.0,90,0.00,,,0.06,,2013-06-03 08:42:00,
2013-06-03 01:52:00,53.0,50.0,30.11,NNE,19,8.0,12.0,90,0.00,,,0.06,,2013-06-03 08:52:00,
2013-06-03 02:02:00,53.0,50.0,30.11,NE,34,10.0,14.0,89,0.00,,,0.06,,2013-06-03 09:02:00,
2013-06-03 02:12:00,53.0,50.0,30.11,NE,34,10.0,14.0,89,0.00,,,0.06,,2013-06-03 09:12:00,
2013-06-03 02:22:00,53.0,50.0,30.11,NNE,27,9.0,15.0,89,0.00,,,0.06,,2013-06-03 09:22:00,
2013-06-03 02:33:00,53.0,50.0,30.11,NNE,15,9.0,16.0,89,0.00,,,0.05,,2013-06-03 09:33:00,
2013-06-03 02:42:00,53.0,50.0,30.11,NNE,15,9.0,16.0,89,0.00,,,0.05,,2013-06-03 09:42:00,
2013-06-03 02:52:00,53.0,50.0,30.11,NNE,18,7.0,13.0,89,0.00,,,0.05,,2013-06-03 09:52:00,
2013-06-03 03:02:00,52.0,49.0,30.11,NNE,33,8.0,11.0,89,0.00,,,0.05,,2013-06-03 10:02:00,
2013-06-03 03:12:00,52.0,49.0,30.11,NNE,33,8.0,11.0,89,0.00,,,0.05,,2013-06-03 10:12:00,
2013-06-03 03:22:00,52.0,49.0,30.11,North,11,7.0,12.0,89,0.00,,,0.05,,2013-06-03 10:22:00,
2013-06-03 03:32:00,52.0,49.0,30.11,NNE,14,8.0,12.0,89,0.00,,,0.03,,2013-06-03 10:32:00,
2013-06-03 03:42:00,52.0,49.0,30.11,NNE,14,8.0,12.0,89,0.00,,,0.03,,2013-06-03 10:42:00,
2013-06-03 03:52:00,52.0,49.0,30.11,North,2,7.0,10.0,89,0.00,,,0.03,,2013-06-03 10:52:00,
2013-06-03 04:02:00,52.0,49.0,30.11,NNE,23,9.0,13.0,89,0.00,,,0.03,,2013-06-03 11:02:00,
2013-06-03 04:12:00,52.0,49.0,30.11,NNE,23,9.0,13.0,89,0.00,,,0.03,,2013-06-03 11:12:00,
2013-06-03 04:22:00,52.0,49.0,30.11,NNE,27,7.0,11.0,89,0.00,,,0.03,,2013-06-03 11:22:00,
2013-06-03 04:32:00,52.0,49.0,30.10,NE,38,8.0,14.0,89,0.00,,,0.02,,2013-06-03 11:32:00,
2013-06-03 04:42:00,52.0,49.0,30.10,NE,38,8.0,14.0,89,0.00,,,0.02,,2013-06-03 11:42:00,
2013-06-03 04:52:00,52.0,49.0,30.10,NNE,27,7.0,14.0,89,0.00,,,0.02,,2013-06-03 11:52:00,
2013-06-03 05:02:00,52.0,49.0,30.10,NNE,15,9.0,12.0,89,0.00,,,0.02,,2013-06-03 12:02:00,
2013-06-03 05:12:00,52.0,49.0,30.10,NNE,15,9.0,12.0,89,0.00,,,0.02,,2013-06-03 12:12:00,
2013-06-03 05:21:00,52.0,49.0,30.10,North,9,8.0,13.0,89,0.00,,,0.02,,2013-06-03 12:21:00,
2013-06-03 05:32:00,52.0,49.0,30.10,NNE,33,5.0,13.0,89,0.00,,,0.01,,2013-06-03 12:32:00,
2013-06-03 05:42:00,52.0,49.0,30.10,NNE,33,5.0,13.0,89,0.00,,,0.01,,2013-06-03 12:42:00,
2013-06-03 05:52:00,52.0,49.0,30.11,NE,46,6.0,10.0,89,0.00,,,0.01,,2013-06-03 12:52:00,
2013-06-03 06:02:00,52.0,49.0,30.11,NNE,12,8.0,14.0,89,0.00,,,0.01,,2013-06-03 13:02:00,
2013-06-03 06:12:00,52.0,49.0,30.11,NNE,12,8.0,14.0,89,0.00,,,0.01,,2013-06-03 13:12:00,
2013-06-03 06:22:00,51.0,48.0,30.11,NNE,18,9.0,13.0,89,0.00,,,0.01,,2013-06-03 13:22:00,
2013-06-03 06:32:00,52.0,49.0,30.11,SSE,160,6.0,11.0,89,0.00,,,0.01,,2013-06-03 13:32:00,
2013-06-03 06:42:00,52.0,49.0,30.11,SSE,160,6.0,11.0,89,0.00,,,0.01,,2013-06-03 13:42:00,
2013-06-03 06:52:00,52.0,49.0,30.11,NNE,18,8.0,11.0,89,0.00,,,0.01,,2013-06-03 13:52:00,
2013-06-03 07:02:00,52.0,49.0,30.11,NNE,29,6.0,11.0,89,0.00,,,0.01,,2013-06-03 14:02:00,
2013-06-03 07:12:00,52.0,49.0,30.11,NNE,29,6.0,11.0,89,0.00,,,0.01,,2013-06-03 14:12:00,
2013-06-03 07:22:00,52.0,49.0,30.11,North,356,9.0,14.0,89,0.00,,,0.01,,2013-06-03 14:22:00,
2013-06-03 07:32:00,52.0,49.0,30.12,NNE,21,8.0,15.0,89,0.00,,,0.00,,2013-06-03 14:32:00,
2013-06-03 07:42:00,52.0,49.0,30.12,NNE,21,8.0,15.0,89,0.00,,,0.00,,2013-06-03 14:42:00,
2013-06-03 07:52:00,53.0,50.0,30.12,NE,41,6.0,12.0,88,0.00,,,0.00,,2013-06-03 14:52:00,
2013-06-03 08:02:00,53.0,50.0,30.12,NNE,32,7.0,12.0,88,0.00,,,0.00,,2013-06-03 15:02:00,
2013-06-03 08:12:00,53.0,50.0,30.12,NNE,32,7.0,12.0,88,0.00,,,0.00,,2013-06-03 15:12:00,
2013-06-03 08:22:00,53.0,50.0,30.12,North,8,8.0,12.0,88,0.00,,,0.00,,2013-06-03 15:22:00,
2013-06-03 08:33:00,53.0,49.0,30.13,North,4,9.0,13.0,87,0.00,,,0.00,,2013-06-03 15:33:00,
2013-06-03 08:43:00,53.0,49.0,30.13,North,4,9.0,13.0,87,0.00,,,0.00,,2013-06-03 15:43:00,
2013-06-03 08:53:00,53.0,49.0,30.13,North,8,10.0,15.0,87,0.00,,,0.00,,2013-06-03 15:53:00,
2013-06-03 09:03:00,54.0,50.0,30.13,NNW,347,11.0,14.0,87,0.00,,,0.00,,2013-06-03 16:03:00,
2013-06-03 09:12:00,54.0,50.0,30.13,NNW,347,11.0,14.0,87,0.00,,,0.00,,2013-06-03 16:12:00,
2013-06-03 09:23:00,53.0,50.0,30.13,North,357,12.0,15.0,88,0.00,,,0.00,,2013-06-03 16:23:00,
2013-06-03 09:32:00,53.0,49.0,30.13,North,360,14.0,16.0,87,0.00,,,0.00,,2013-06-03 16:32:00,
2013-06-03 09:42:00,54.0,50.0,30.13,North,7,12.0,17.0,87,0.00,,,0.00,,2013-06-03 16:42:00,
2013-06-03 09:53:00,54.0,50.0,30.13,North,7,12.0,17.0,87,0.00,,,0.00,,2013-06-03 16:53:00,
2013-06-03 10:02:00,54.0,50.0,30.13,North,2,15.0,18.0,87,0.00,,,0.00,,2013-06-03 17:02:00,
2013-06-03 10:12:00,54.0,50.0,30.13,North,2,15.0,18.0,87,0.00,,,0.00,,2013-06-03 17:12:00,
2013-06-03 10:22:00,54.0,50.0,30.13,North,359,14.0,17.0,87,0.00,,,0.00,,2013-06-03 17:22:00,
2013-06-03 10:33:00,55.0,51.0,30.14,NNE,16,12.0,16.0,87,0.00,,,0.00,,2013-06-03 17:33:00,
2013-06-03 10:42:00,55.0,51.0,30.14,NNE,16,12.0,16.0,87,0.00,,,0.00,,2013-06-03 17:42:00,
2013-06-03 10:52:00,55.0,51.0,30.14,NNE,14,15.0,19.0,87,0.00,,,0.00,,2013-06-03 17:52:00,
2013-06-03 11:02:00,55.0,51.0,30.14,North,6,15.0,18.0,86,0.00,,,0.00,,2013-06-03 18:02:00,
2013-06-03 11:12:00,55.0,51.0,30.14,North,6,15.0,18.0,86,0.00,,,0.00,,2013-06-03 18:12:00,
2013-06-03 11:22:00,56.0,52.0,30.14,North,8,14.0,19.0,86,0.00,,,0.00,,2013-06-03 18:22:00,
2013-06-03 11:32:00,56.0,52.0,30.14,North,4,14.0,21.0,86,0.00,,,0.00,,2013-06-03 18:32:00,
2013-06-03 11:42:00,56.0,52.0,30.14,North,4,14.0,21.0,86,0.00,,,0.00,,2013-06-03 18:42:00,
2013-06-03 11:52:00,56.0,52.0,30.14,North,9,15.0,18.0,85,0.00,,,0.00,,2013-06-03 18:52:00,
2013-06-03 12:03:00,56.0,51.0,30.13,North,9,15.0,18.0,84,0.00,,,0.00,,2013-06-03 19:03:00,
2013-06-03 12:12:00,56.0,51.0,30.13,North,9,15.0,18.0,84,0.00,,,0.00,,2013-06-03 19:12:00,
2013-06-03 12:22:00,57.0,52.0,30.13,North,6,16.0,22.0,84,0.00,,,0.00,,2013-06-03 19:22:00,
2013-06-03 12:32:00,57.0,52.0,30.12,NNE,17,15.0,19.0,84,0.00,,,0.00,,2013-06-03 19:32:00,
2013-06-03 12:42:00,57.0,52.0,30.12,NNE,17,15.0,19.0,84,0.00,,,0.00,,2013-06-03 19:42:00,
2013-06-03 12:52:00,57.0,52.0,30.12,NNE,12,15.0,21.0,84,0.00,,,0.00,,2013-06-03 19:52:00,
2013-06-03 13:02:00,57.0,52.0,30.12,North,8,15.0,22.0,83,0.00,,,0.00,,2013-06-03 20:02:00,
2013-06-03 13:12:00,57.0,52.0,30.12,North,8,15.0,22.0,83,0.00,,,0.00,,2013-06-03 20:12:00,
2013-06-03 13:22:00,57.0,52.0,30.12,North,6,17.0,22.0,83,0.00,,,0.00,,2013-06-03 20:22:00,
2013-06-03 13:32:00,58.0,53.0,30.12,North,4,15.0,21.0,83,0.00,,,0.00,,2013-06-03 20:32:00,
2013-06-03 13:42:00,58.0,53.0,30.12,North,4,15.0,21.0,83,0.00,,,0.00,,2013-06-03 20:42:00,
2013-06-03 13:52:00,58.0,53.0,30.12,North,8,16.0,22.0,83,0.00,,,0.00,,2013-06-03 20:52:00,
2013-06-03 14:02:00,58.0,53.0,30.12,NNE,13,16.0,19.0,83,0.00,,,0.00,,2013-06-03 21:02:00,
2013-06-03 14:12:00,58.0,53.0,30.12,NNE,13,16.0,19.0,83,0.00,,,0.00,,2013-06-03 21:12:00,
2013-06-03 14:22:00,59.0,54.0,30.11,North,8,15.0,21.0,82,0.00,,,0.00,,2013-06-03 21:22:00,
2013-06-03 14:32:00,58.0,53.0,30.11,North,3,17.0,22.0,83,0.00,,,0.00,,2013-06-03 21:32:00,
2013-06-03 14:43:00,58.0,53.0,30.11,North,3,17.0,22.0,83,0.00,,,0.00,,2013-06-03 21:43:00,
2013-06-03 14:53:00,58.0,53.0,30.11,North,9,17.0,22.0,84,0.00,,,0.00,,2013-06-03 21:53:00,
2013-06-03 15:02:00,58.0,53.0,30.11,NNE,14,16.0,21.0,84,0.00,,,0.00,,2013-06-03 22:02:00,
2013-06-03 15:12:00,58.0,53.0,30.11,NNE,14,16.0,21.0,84,0.00,,,0.00,,2013-06-03 22:12:00,
2013-06-03 15:22:00,58.0,53.0,30.11,North,11,17.0,22.0,84,0.00,,,0.00,,2013-06-03 22:22:00,
2013-06-03 15:32:00,58.0,54.0,30.11,North,6,16.0,22.0,85,0.00,,,0.00,,2013-06-03 22:32:00,
2013-06-03 15:42:00,58.0,54.0,30.11,North,6,16.0,22.0,85,0.00,,,0.00,,2013-06-03 22:42:00,
2013-06-03 15:53:00,58.0,53.0,30.11,North,354,17.0,22.0,84,0.00,,,0.00,,2013-06-03 22:53:00,
2013-06-03 16:02:00,58.0,53.0,30.11,North,8,17.0,23.0,84,0.00,,,0.00,,2013-06-03 23:02:00,
2013-06-03 16:12:00,58.0,53.0,30.11,North,8,17.0,23.0,84,0.00,,,0.00,,2013-06-03 23:12:00,
2013-06-03 16:22:00,58.0,53.0,30.11,NNE,13,18.0,24.0,84,0.00,,,0.00,,2013-06-03 23:22:00,
2013-06-03 16:32:00,58.0,53.0,30.11,North,8,18.0,24.0,84,0.00,,,0.00,,2013-06-03 23:32:00,
2013-06-03 16:42:00,58.0,53.0,30.11,North,8,18.0,24.0,84,0.00,,,0.00,,2013-06-03 23:42:00,
2013-06-03 16:52:00,58.0,53.0,30.11,North,358,19.0,24.0,84,0.00,,,0.00,,2013-06-03 23:52:00,
2013-06-03 17:02:00,58.0,54.0,30.11,North,8,17.0,24.0,85,0.00,,,0.00,,2013-06-04 00:02:00,
2013-06-03 17:12:00,58.0,54.0,30.11,North,8,17.0,24.0,85,0.00,,,0.00,,2013-06-04 00:12:00,
2013-06-03 17:22:00,57.0,53.0,30.10,North,360,20.0,25.0,85,0.00,,,0.00,,2013-06-04 00:22:00,
2013-06-03 17:32:00,57.0,53.0,30.10,North,2,21.0,26.0,85,0.00,,,0.00,,2013-06-04 00:32:00,
2013-06-03 17:42:00,57.0,53.0,30.10,North,2,21.0,26.0,85,0.00,,,0.00,,2013-06-04 00:42:00,
2013-06-03 17:52:00,57.0,53.0,30.10,NNE,15,21.0,25.0,85,0.00,,,0.00,,2013-06-04 00:52:00,
2013-06-03 18:02:00,57.0,53.0,30.10,NNE,13,18.0,25.0,85,0.00,,,0.00,,2013-06-04 01:02:00,
2013-06-03 18:12:00,57.0,53.0,30.10,NNE,13,18.0,25.0,85,0.00,,,0.00,,2013-06-04 01:12:00,
2013-06-03 18:22:00,57.0,53.0,30.10,North,6,17.0,22.0,86,0.00,,,0.00,,2013-06-04 01:22:00,
2013-06-03 18:32:00,56.0,52.0,30.09,North,11,19.0,25.0,86,0.00,,,0.00,,2013-06-04 01:32:00,
2013-06-03 18:42:00,56.0,52.0,30.09,North,11,19.0,25.0,86,0.00,,,0.00,,2013-06-04 01:42:00,
2013-06-03 18:52:00,56.0,52.0,30.09,NNW,348,19.0,23.0,86,0.00,,,0.00,,2013-06-04 01:52:00,
2013-06-03 19:02:00,55.0,51.0,30.09,NNE,13,15.0,23.0,86,0.00,,,0.00,,2013-06-04 02:02:00,
2013-06-03 19:12:00,55.0,51.0,30.09,NNE,13,15.0,23.0,86,0.00,,,0.00,,2013-06-04 02:12:00,
2013-06-03 19:21:00,55.0,51.0,30.09,North,5,17.0,24.0,86,0.00,,,0.00,,2013-06-04 02:21:00,
2013-06-03 19:32:00,55.0,51.0,30.09,North,4,15.0,23.0,87,0.00,,,0.00,,2013-06-04 02:32:00,
2013-06-03 19:42:00,55.0,51.0,30.09,North,4,15.0,23.0,87,0.00,,,0.00,,2013-06-04 02:42:00,
2013-06-03 19:52:00,55.0,51.0,30.09,North,10,18.0,24.0,87,0.00,,,0.00,,2013-06-04 02:52:00,
2013-06-03 20:01:00,54.0,50.0,30.10,North,9,17.0,23.0,87,0.00,,,0.00,,2013-06-04 03:01:00,
2013-06-03 20:11:00,54.0,50.0,30.10,North,9,17.0,23.0,87,0.00,,,0.00,,2013-06-04 03:11:00,
2013-06-03 20:22:00,54.0,51.0,30.09,NNE,19,20.0,26.0,88,0.00,,,0.00,,2013-06-04 03:22:00,
2013-06-03 20:32:00,54.0,51.0,30.09,NNE,13,17.0,23.0,88,0.00,,,0.00,,2013-06-04 03:32:00,
2013-06-03 20:43:00,54.0,51.0,30.09,NNE,13,17.0,23.0,88,0.00,,,0.00,,2013-06-04 03:43:00,
2013-06-03 20:53:00,53.0,50.0,30.09,North,11,22.0,27.0,89,0.00,,,0.00,,2013-06-04 03:53:00,
2013-06-03 21:02:00,53.0,50.0,30.09,North,1,15.0,26.0,89,0.00,,,0.00,,2013-06-04 04:02:00,
2013-06-03 21:13:00,53.0,50.0,30.09,North,1,15.0,26.0,89,0.00,,,0.00,,2013-06-04 04:13:00,
2013-06-03 21:23:00,53.0,50.0,30.09,North,11,13.0,23.0,89,0.00,,,0.00,,2013-06-04 04:23:00,
2013-06-03 21:33:00,52.0,49.0,30.09,NNE,17,12.0,16.0,90,0.00,,,0.00,,2013-06-04 04:33:00,
2013-06-03 21:42:00,52.0,49.0,30.09,NNE,17,12.0,16.0,90,0.00,,,0.00,,2013-06-04 04:42:00,
2013-06-03 21:53:00,52.0,49.0,30.09,NNE,13,14.0,22.0,90,0.00,,,0.00,,2013-06-04 04:53:00,
2013-06-03 22:02:00,52.0,49.0,30.09,North,6,12.0,18.0,90,0.00,,,0.00,,2013-06-04 05:02:00,
2013-06-03 22:12:00,52.0,49.0,30.09,North,6,12.0,18.0,90,0.00,,,0.00,,2013-06-04 05:12:00,
2013-06-03 22:22:00,52.0,49.0,30.09,NNE,23,14.0,22.0,91,0.00,,,0.00,,2013-06-04 05:22:00,
2013-06-03 22:32:00,52.0,49.0,30.10,North,3,13.0,23.0,91,0.00,,,0.00,,2013-06-04 05:32:00,
2013-06-03 22:42:00,52.0,49.0,30.10,North,3,13.0,23.0,91,0.00,,,0.00,,2013-06-04 05:42:00,
2013-06-03 22:52:00,52.0,49.0,30.10,NNE,13,13.0,18.0,91,0.00,,,0.00,,2013-06-04 05:52:00,
2013-06-03 23:02:00,52.0,49.0,30.10,NNE,19,12.0,18.0,91,0.00,,,0.00,,2013-06-04 06:02:00,
2013-06-03 23:12:00,52.0,49.0,30.10,NNE,19,12.0,18.0,91,0.00,,,0.00,,2013-06-04 06:12:00,
2013-06-03 23:22:00,51.0,48.0,30.09,NNE,19,9.0,18.0,91,0.00,,,0.00,,2013-06-04 06:22:00,
2013-06-03 23:32:00,51.0,48.0,30.09,NNE,22,5.0,17.0,91,0.00,,,0.00,,2013-06-04 06:32:00,
2013-06-03 23:42:00,51.0,48.0,30.09,NNE,22,5.0,17.0,91,0.00,,,0.00,,2013-06-04 06:42:00,
2013-06-03 23:52:00,51.0,48.0,30.09,NNE,18,8.0,11.0,91,0.00,,,0.00,,2013-06-04 06:52:00,